Wind_Speed
7 7 8 10 11 17 15 15 18 21 26 29 32 31 24 23 24 26 28 31 33 34 32 29 25 22 19 18 18 18 15 11 8 8 10 12 14 14 11 8 8 9 8 12
7 5 4 5 4 9 10 9 13 18 22 23 25 29 28 26 25 24 24 26 29 27 27 29 28 26 24 24 23 20 16 14 16 14 10 6 4 8 15 15 14 15 15 14
12 9 6 4 3 3 6 3 10 14 17 18 20 22 23 26 28 26 23 24 26 26 24 24 24 22 20 21 23 22 20 19 19 20 22 18 10 8 12 16 19 20 21 23
17 15 11 9 8 3 4 4 7 11 16 17 17 19 19 20 21 22 25 27 27 27 27 25 21 19 18 16 17 16 19 24 32 34 40 21 32 15 12 12 15 18 22 31
20 19 17 14 12 6 8 5 7 10 12 14 16 14 13 16 17 18 20 21 24 27 28 27 19 18 19 11 10 16 13 23 31 34 37 43 37 28 19 13 7 25 39 38
26 24 23 19 15 13 13 8 6 6 9 10 11 14 12 14 15 17 19 20 20 23 26 27 23 17 15 13 11 9 10 17 28 38 35 34 33 39 30 29 29 25 44 41
34 31 28 24 21 19 18 14 11 7 7 9 8 11 12 8 9 12 15 20 25 29 26 24 24 24 20 19 28 20 22 24 19 24 36 28 24 33 36 27 23 27 33 40
36 32 32 31 29 24 23 21 15 12 9 9 9 10 13 12 12 8 9 15 15 15 22 28 29 26 19 17 20 32 32 32 41 37 44 38 25 30 33 37 29 25 21 27
43 42 39 36 35 29 28 29 19 19 15 14 9 9 16 15 15 13 8 6 8 13 19 23 25 29 29 25 23 21 30 28 29 34 51 47 50 42 28 27 32 30 12 16
50 48 44 42 39 35 34 33 26 26 21 18 13 12 15 18 19 18 16 9 7 9 15 17 22 27 28 32 28 23 32 25 33 26 38 29 36 29 33 37 42 37 36 29
58 53 51 47 42 42 41 39 33 32 28 25 21 15 18 21 22 23 19 18 18 14 17 23 25 25 28 26 24 22 23 32 33 38 32 33 27 33 36 44 52 44 51 57
62 59 56 52 51 49 45 44 38 36 38 31 27 22 21 24 20 24 25 25 27 23 21 24 29 30 31 30 34 28 26 32 27 40 19 18 33 42 36 49 54 57 61 69
70 63 63 57 53 52 48 48 46 43 43 37 33 30 28 27 24 26 27 27 31 32 30 32 32 35 36 35 37 36 40 40 39 40 29 44 48 50 45 52 64 67 71 74
77 69 62 58 57 56 55 53 52 49 46 44 38 36 32 31 28 30 30 31 37 35 35 37 41 42 40 43 43 44 47 48 51 53 46 53 53 54 63 66 71 74 79 83
79 72 66 65 65 60 58 56 57 50 50 49 47 39 37 36 34 32 34 34 41 40 37 37 37 44 51 49 52 50 53 57 58 58 61 66 68 70 73 75 78 81 85 90
85 76 75 71 71 67 64 58 55 56 56 54 52 47 42 39 39 38 39 43 44 48 45 42 42 45 48 53 54 56 60 62 68 66 67 72 71 74 77 80 85 89 93 99
90 82 81 71 73 74 69 59 61 63 62 59 55 55 49 44 42 44 46 49 52 53 50 50 51 53 52 53 55 58 61 66 70 72 72 75 77 80 81 86 92 94 100 101
90 86 83 75 77 82 59 65 67 66 65 65 58 53 52 49 50 50 50 55 58 57 55 56 59 59 58 58 56 59 64 70 75 75 77 78 80 84 87 93 94 99 100 93
91 87 85 78 78 76 71 66 66 69 69 66 59 56 54 53 55 54 56 60 62 60 60 62 64 64 65 59 61 66 72 78 79 80 82 83 86 89 94 95 96 96 91 86
96 90 87 83 83 79 63 67 71 77 77 67 63 60 62 61 60 61 63 66 65 64 65 67 68 70 63 64 70 77 80 82 84 85 86 87 87 89 93 96 95 90 86 86
97 92 92 87 85 76 65 71 76 83 74 71 66 65 67 67 67 68 70 70 70 69 71 69 67 61 72 77 78 79 80 81 82 86 87 89 93 95 96 94 90 87 87 87
99 95 96 92 87 77 70 74 80 80 80 76 73 70 70 70 70 73 74 73 72 70 66 66 72 77 78 79 83 83 82 82 85 87 90 94 96 97 93 89 87 87 89 88
105 99 97 94 87 84 81 80 79 80 78 76 75 72 69 69 71 73 72 71 69 72 74 78 78 78 81 82 85 80 81 85 89 91 94 97 96 91 89 86 85 84 84 85
97 100 98 94 91 88 84 82 81 79 80 78 76 73 72 72 71 73 77 74 72 73 75 78 79 80 82 83 80 82 85 90 93 95 96 92 89 86 84 82 83 86 88 89
89 100 102 99 93 89 87 84 83 83 82 79 78 78 77 77 80 77 75 76 78 80 79 76 76 81 80 78 81 86 92 93 96 94 90 85 82 81 83 85 88 91 92 91
65 68 77 83 89 90 88 84 81 81 81 81 79 78 78 80 79 79 77 77 80 80 74 74 80 78 78 81 89 95 94 93 89 87 79 79 82 84 86 91 95 94 93 90
Wind_Direction
145 114 91 68 59 65 57 28 36 33 43 48 54 55 50 51 53 60 62 63 60 54 53 57 61 61 70 71 67 66 60 48 26 351 314 302 299 300 300 283 275 234 238 291
198 182 144 108 52 55 57 21 26 39 43 41 49 52 42 47 48 49 54 62 69 66 56 55 61 69 70 71 74 74 70 62 49 27 11 18 330 299 282 277 271 270 257 251
220 224 217 210 176 319 63 353 19 39 45 44 39 46 43 40 41 43 47 52 54 57 59 66 61 59 57 55 61 66 65 52 44 34 35 29 18 337 301 284 276 267 271 262
234 238 238 242 252 256 298 335 10 31 30 33 38 34 36 36 38 39 37 43 44 47 44 46 50 52 42 47 51 48 57 52 34 28 28 31 26 2 331 309 312 313 324 310
237 237 242 244 246 251 257 295 342 18 36 23 17 23 25 18 22 24 32 42 43 43 44 41 39 47 30 14 34 53 63 35 15 14 19 24 8 356 1 343 353 345 334 332
239 238 240 242 247 253 260 268 296 346 5 31 358 6 14 7 358 3 6 16 34 36 35 30 31 39 14 339 333 323 3 10 9 7 30 19 22 24 14 342 334 330 338 330
233 237 242 245 246 251 261 266 274 298 329 356 1 352 341 341 340 351 355 357 5 3 15 17 18 17 18 15 2 339 337 306 327 351 350 12 357 13 10 13 346 338 331 322
239 242 242 245 248 252 256 263 273 280 290 310 355 353 323 325 321 333 346 347 348 352 353 352 357 357 358 346 9 358 335 325 331 337 323 344 343 354 356 0 343 338 345 323
235 238 238 242 249 252 257 261 268 268 276 291 322 321 313 329 316 314 307 321 328 333 342 344 339 341 339 323 314 343 338 351 345 339 328 312 325 317 352 339 327 299 324 323
240 243 244 244 250 253 254 261 261 266 269 272 284 292 296 312 314 318 323 300 300 333 327 329 330 332 345 339 301 309 325 321 327 334 315 308 309 313 307 297 308 295 285 283
241 243 245 249 251 252 256 261 262 269 270 269 276 282 296 305 312 314 322 324 319 313 316 319 318 327 331 339 337 318 302 319 304 310 305 304 263 293 296 304 300 298 291 287
242 242 245 247 250 255 258 264 268 268 269 275 278 278 287 296 309 311 316 323 310 305 302 305 310 315 321 331 331 335 306 337 312 320 316 298 270 277 294 304 299 295 301 302
243 243 246 247 253 258 260 262 264 265 270 276 278 278 286 291 300 299 311 312 308 304 301 301 304 309 315 319 317 321 324 325 319 319 283 292 290 291 302 304 300 305 306 307
246 245 247 251 249 250 256 259 262 267 272 271 276 278 283 288 290 296 304 301 302 302 298 300 307 310 310 312 313 310 313 319 315 309 307 304 310 302 303 306 303 305 307 307
244 246 247 248 251 252 253 257 264 267 269 273 274 277 280 284 287 291 293 294 294 296 296 295 298 303 305 307 308 306 306 312 316 313 312 310 309 311 310 307 307 306 308 310
242 241 243 244 249 251 251 255 260 266 268 270 274 277 276 279 284 290 290 291 293 294 296 290 290 293 298 302 303 303 307 309 313 311 308 311 310 306 306 307 310 312 310 311
239 242 245 246 250 252 251 256 257 259 262 267 269 272 280 281 281 283 285 288 288 291 293 290 290 292 295 299 297 299 302 304 307 306 304 303 302 303 304 308 310 311 312 310
239 241 245 247 248 253 257 256 258 260 262 265 268 272 276 280 279 278 281 283 287 290 290 289 289 292 297 297 293 294 297 302 303 301 300 301 303 305 306 309 310 312 310 307
239 241 243 245 252 253 254 260 263 263 262 264 268 272 273 274 274 277 279 282 284 287 286 286 291 297 297 292 293 297 301 302 301 301 302 305 307 308 311 310 308 307 310 309
239 240 243 244 247 253 257 260 260 264 263 267 271 274 275 276 278 278 278 278 281 282 285 287 292 294 292 296 300 303 304 306 308 309 309 309 308 308 309 311 313 313 311 310
242 242 245 245 246 248 253 258 259 261 270 268 268 270 272 274 276 278 278 280 283 285 288 292 293 292 297 302 303 304 306 307 307 307 308 309 309 310 312 312 312 312 311 310
241 241 243 245 246 248 249 251 258 261 262 266 269 270 274 277 279 280 282 283 284 289 292 292 293 296 299 300 301 303 303 304 305 306 307 308 309 311 312 311 311 310 309 309
241 241 242 245 246 244 244 249 253 261 264 267 271 273 274 275 276 278 281 284 288 292 293 293 295 297 298 299 301 301 303 304 305 306 307 308 310 310 310 309 308 308 309 310
238 242 242 242 243 245 247 250 253 258 265 269 271 274 276 276 277 278 283 286 287 288 288 290 293 296 296 298 299 301 303 303 304 305 308 309 308 308 308 307 306 308 310 310
241 243 243 244 247 249 250 251 253 255 259 262 266 268 270 272 276 278 280 283 285 287 290 291 293 293 294 294 298 301 304 305 305 307 307 307 307 307 307 308 310 311 311 312
244 248 250 249 249 250 251 251 253 254 256 258 262 264 267 270 273 275 279 282 283 284 285 290 293 292 287 290 297 303 305 305 305 305 305 307 309 309 309 311 312 311 313 312
Height
11014 11016 11016 11017 11018 11016 11019 11021 11019 11015 11010 11008 11005 11005 11006 11004 11001 10998 10996 10992 10988 10988 10987 10986 10983 10981 10982 10980 10978 10976 10974 10973 10971 10969 10968 10968 10967 10964 10961 10963 10964 10966 10967 10968
11013 11015 11016 11017 11019 11019 11019 11024 11024 11018 11014 11012 11011 11008 11009 11006 11003 11002 11001 11000 10998 10997 10994 10990 10987 10985 10983 10979 10976 10975 10973 10971 10970 10969 10967 10967 10964 10962 10961 10961 10963 10964 10964 10963
11010 11012 11014 11016 11018 11020 11019 11024 11022 11021 11018 11016 11013 11010 11012 11009 11006 11004 11002 11000 10998 10997 10997 10997 10993 10989 10986 10984 10980 10978 10976 10973 10972 10969 10967 10966 10966 10965 10963 10961 10963 10963 10962 10960
11006 11008 11010 11013 11015 11016 11019 11020 11021 11020 11018 11017 11014 11011 11011 11012 11010 11008 11004 11000 10998 10996 10995 10994 10993 10991 10988 10984 10983 10981 10977 10974 10969 10967 10966 10964 10965 10963 10958 10956 10961 10963 10963 10958
11003 11004 11007 11009 11012 11013 11017 11017 11018 11018 11019 11017 11016 11018 11015 11012 11010 11008 11007 11005 11000 10998 10995 10994 10992 10990 10988 10986 10984 10980 10979 10975 10970 10966 10966 10965 10962 10960 10959 10956 10953 10957 10956 10949
10997 11000 11002 11005 11007 11009 11012 11015 11016 11017 11017 11019 11018 11018 11015 11013 11011 11007 11005 11003 11002 11000 10997 10995 10992 10990 10987 10983 10982 10979 10975 10970 10968 10968 10968 10966 10961 10958 10957 10954 10951 10949 10947 10944
10988 10992 10996 10998 11002 11005 11006 11010 11012 11014 11015 11016 11017 11015 11014 11014 11013 11009 11005 10999 10996 10992 10995 10995 10992 10988 10985 10983 10980 10977 10973 10969 10967 10965 10966 10964 10961 10954 10952 10949 10946 10943 10940 10938
10985 10988 10989 10991 10995 11000 11000 11002 11006 11008 11012 11014 11016 11013 11010 11010 11011 11010 11008 11004 11001 10997 10993 10989 10987 10986 10983 10979 10974 10971 10969 10965 10961 10958 10957 10956 10951 10946 10946 10946 10941 10934 10928 10931
10973 10976 10981 10985 10986 10991 10993 10994 11001 11001 11005 11009 11011 11010 11008 11008 11007 11007 11009 11010 11007 10999 10995 10990 10984 10979 10974 10974 10969 10966 10966 10964 10957 10951 10952 10953 10950 10946 10938 10937 10938 10933 10924 10926
10962 10966 10973 10976 10980 10984 10986 10988 10994 10995 11000 11003 11006 11007 11006 11003 11003 11001 11004 11007 11005 11000 10995 10990 10984 10977 10973 10966 10964 10962 10963 10962 10955 10944 10949 10940 10947 10940 10932 10929 10925 10924 10919 10912
10949 10957 10961 10967 10974 10974 10975 10979 10985 10986 10991 10995 10999 11000 10997 10997 10996 10996 10995 10991 10993 10995 10990 10983 10979 10974 10970 10966 10963 10963 10960 10957 10951 10945 10939 10933 10937 10931 10924 10920 10921 10916 10910 10904
10940 10945 10950 10958 10959 10964 10968 10969 10976 10977 10977 10987 10991 10993 10992 10988 10989 10987 10988 10988 10983 10984 10984 10980 10973 10968 10964 10959 10955 10955 10951 10946 10940 10940 10932 10926 10924 10922 10919 10911 10908 10903 10895 10889
10923 10939 10938 10949 10955 10956 10960 10959 10962 10966 10968 10976 10980 10984 10985 10985 10983 10982 10982 10981 10977 10973 10970 10969 10966 10961 10955 10953 10949 10947 10944 10942 10935 10934 10930 10925 10919 10913 10907 10902 10897 10889 10880 10871
10905 10923 10934 10941 10943 10945 10946 10950 10952 10956 10960 10963 10970 10973 10976 10976 10977 10976 10976 10974 10969 10968 10962 10957 10952 10949 10946 10943 10939 10938 10935 10933 10929 10921 10916 10912 10906 10901 10893 10889 10884 10873 10862 10851
10895 10911 10922 10927 10927 10935 10938 10941 10940 10949 10949 10952 10956 10964 10966 10966 10966 10971 10968 10966 10961 10959 10958 10953 10949 10943 10937 10935 10930 10930 10925 10920 10914 10908 10901 10893 10888 10881 10876 10872 10864 10853 10842 10829
10875 10896 10902 10910 10913 10920 10926 10935 10938 10936 10936 10942 10944 10952 10956 10957 10958 10960 10957 10953 10951 10946 10948 10945 10942 10940 10936 10927 10921 10915 10909 10906 10900 10898 10892 10885 10880 10874 10865 10853 10839 10829 10818 10803
10860 10881 10884 10904 10902 10900 10912 10931 10926 10923 10924 10931 10939 10936 10944 10948 10951 10949 10945 10942 10939 10938 10936 10933 10931 10928 10927 10921 10914 10908 10903 10899 10896 10891 10885 10878 10870 10860 10847 10833 10821 10808 10795 10782
10853 10867 10876 10890 10886 10877 10922 10912 10910 10912 10913 10913 10927 10934 10933 10936 10937 10936 10935 10929 10925 10924 10923 10920 10916 10914 10912 10909 10905 10898 10894 10889 10883 10877 10870 10860 10849 10836 10825 10815 10802 10789 10778 10769
10840 10855 10862 10875 10875 10883 10891 10900 10899 10895 10897 10903 10915 10921 10924 10922 10921 10923 10920 10914 10912 10912 10908 10904 10900 10898 10894 10890 10886 10883 10876 10869 10862 10854 10845 10837 10826 10814 10803 10795 10788 10776 10760 10744
10826 10840 10847 10860 10862 10870 10893 10883 10878 10869 10874 10898 10903 10906 10902 10903 10905 10905 10903 10899 10899 10896 10893 10890 10887 10881 10874 10870 10865 10860 10852 10844 10834 10825 10818 10812 10805 10795 10783 10769 10755 10744 10731 10718
10813 10825 10830 10843 10849 10867 10881 10867 10858 10849 10874 10878 10887 10888 10887 10887 10886 10884 10881 10881 10881 10879 10876 10873 10869 10862 10858 10852 10845 10837 10830 10823 10814 10807 10799 10788 10779 10768 10757 10744 10733 10722 10709 10699
10788 10803 10809 10821 10838 10858 10861 10851 10845 10850 10852 10860 10867 10873 10871 10869 10867 10863 10860 10860 10860 10860 10858 10855 10851 10846 10842 10836 10828 10821 10814 10806 10798 10789 10780 10769 10759 10748 10737 10726 10716 10706 10694 10684
10762 10781 10794 10804 10822 10829 10836 10839 10842 10838 10842 10847 10850 10855 10860 10857 10852 10847 10845 10844 10847 10845 10840 10834 10831 10827 10820 10814 10808 10802 10794 10786 10777 10770 10762 10752 10740 10729 10720 10711 10701 10689 10678 10669
10745 10754 10771 10783 10798 10810 10826 10832 10835 10837 10832 10833 10838 10839 10835 10834 10832 10828 10829 10831 10832 10829 10825 10820 10815 10807 10799 10795 10790 10783 10775 10768 10760 10751 10742 10733 10721 10712 10702 10693 10684 10674 10662 10648
10731 10737 10749 10766 10786 10803 10812 10818 10824 10824 10824 10822 10821 10819 10818 10816 10813 10813 10812 10814 10814 10811 10809 10804 10800 10793 10786 10781 10775 10768 10760 10750 10742 10733 10724 10714 10704 10695 10683 10671 10659 10648 10635 10621
10717 10727 10739 10761 10773 10782 10788 10796 10803 10807 10808 10808 10806 10804 10805 10803 10803 10803 10801 10796 10793 10791 10788 10786 10782 10776 10769 10766 10759 10752 10743 10734 10725 10715 10704 10694 10684 10672 10660 10646 10633 10622 10610 10594